Terminal Aerodrome Forecast
Issued by NWS La Crosse, WI

Home | Current Version | Previous Version | Text Only | Print | Product List | Glossary On
Versions: 1 2 3 4 5 6 7 8 9 10 11 12 13 14 15 16 17 18 19 20 21 22 23 24 25 26 27 28 29 30 31 32 33 34 35 36
000
FTUS43 KARX 131725
TAFLSE
TAF
KLSE 131725Z 1318/1418 VRB04KT P6SM SKC
     FM140400 13005KT P6SM SCT150
     FM141100 14006KT 5SM -SN SCT018 BKN040
     FM141500 15010KT 2SM -SN SCT012 OVC025=

USA.gov is the U.S. government's official web portal to all federal, state and local government web resources and services.